• en Belgique
  • Liste des pays
  • À 7 jours
  • Température de l'eau
  • Carte satellitaire
  • Carte météo
  • Widgets météo
  • user-avatar
    Se connecter

    Météo par heure à Elbasan

    Ce jour, 16 Juillet, Lundi

    Heure Température Précipitation Vent Pression Humidité
    00:00 +23°C° 0 mm 1 m/s 734 mmHg 60%
    01:00 +22°C° 0 mm 1 m/s 734 mmHg 58%
    02:00 +22°C° 0 mm 1 m/s 734 mmHg 59%
    03:00 +22°C° 0 mm 1 m/s 734 mmHg 60%
    04:00 +22°C° 0 mm 1 m/s 734 mmHg 61%
    05:00 +23°C° 0 mm 1 m/s 734 mmHg 59%
    06:00 +25°C° 0 mm 1 m/s 734 mmHg 57%
    07:00 +27°C° 0 mm 1 m/s 734 mmHg 54%
    08:00 +28°C° 0 mm 1 m/s 734 mmHg 51%
    09:00 +30°C° 0 mm 2 m/s 734 mmHg 47%
    10:00 +31°C° 0 mm 2 m/s 734 mmHg 43%
    11:00 +33°C° 0 mm 3 m/s 734 mmHg 42%
    12:00 +33°C° 0 mm 4 m/s 734 mmHg 41%
    13:00 +34°C° 0 mm 4 m/s 734 mmHg 40%
    14:00 +33°C° 0 mm 4 m/s 734 mmHg 41%
    15:00 +33°C° 0 mm 4 m/s 733 mmHg 42%
    16:00 +33°C° 0 mm 4 m/s 733 mmHg 43%
    17:00 +30°C° 0 mm 3 m/s 733 mmHg 50%
    18:00 +28°C° 0 mm 2 m/s 733 mmHg 57%
    19:00 +26°C° 0 mm 1 m/s 733 mmHg 64%
    20:00 +25°C° 0 mm 1 m/s 733 mmHg 66%
    21:00 +24°C° 0 mm 1 m/s 733 mmHg 67%
    22:00 +23°C° 0 mm 1 m/s 733 mmHg 68%
    23:00 +23°C° 0 mm 1 m/s 733 mmHg 67%

    Demain, 17 Juillet, Mardi

    Heure Température Précipitation Vent Pression Humidité
    00:00 +23°C° 0 mm 2 m/s 732 mmHg 67%
    01:00 +23°C° 0 mm 2 m/s 732 mmHg 66%
    02:00 +23°C° 0,2 mm 2 m/s 732 mmHg 66%
    03:00 +21°C° 0,2 mm 2 m/s 731 mmHg 67%
    04:00 +21°C° 0,2 mm 2 m/s 731 mmHg 68%
    05:00 +24°C° 0,2 mm 2 m/s 731 mmHg 65%
    06:00 +26°C° 0,2 mm 2 m/s 731 mmHg 62%
    07:00 +28°C° 0,2 mm 2 m/s 731 mmHg 59%
    08:00 +29°C° 0,2 mm 2 m/s 730 mmHg 54%
    09:00 +30°C° 0,2 mm 3 m/s 730 mmHg 49%
    10:00 +31°C° 0,2 mm 3 m/s 730 mmHg 44%
    11:00 +31°C° 0,4 mm 3 m/s 730 mmHg 46%
    12:00 +32°C° 0,4 mm 4 m/s 730 mmHg 48%
    13:00 +32°C° 0,4 mm 4 m/s 729 mmHg 50%
    14:00 +32°C° 0,4 mm 4 m/s 729 mmHg 53%
    15:00 +30°C° 0,4 mm 4 m/s 729 mmHg 55%
    16:00 +29°C° 0,4 mm 4 m/s 729 mmHg 58%
    17:00 +28°C° 0,1 mm 3 m/s 730 mmHg 65%
    18:00 +26°C° 0,1 mm 3 m/s 730 mmHg 72%
    19:00 +25°C° 0,1 mm 3 m/s 730 mmHg 79%
    20:00 +24°C° 0,1 mm 2 m/s 730 mmHg 83%
    21:00 +23°C° 0,1 mm 2 m/s 731 mmHg 87%
    22:00 +22°C° 0,1 mm 1 m/s 731 mmHg 91%
    23:00 +22°C° 0,2 mm 1 m/s 731 mmHg 92%

    Après-demain, 18 Juillet, Mercredi

    Heure Température Précipitation Vent Pression Humidité
    00:00 +21°C° 0,2 mm 1 m/s 731 mmHg 92%
    01:00 +21°C° 0,2 mm 1 m/s 731 mmHg 92%
    02:00 +21°C° 0,1 mm 1 m/s 731 mmHg 92%
    03:00 +20°C° 0,1 mm 1 m/s 731 mmHg 92%
    04:00 +20°C° 0,1 mm 1 m/s 731 mmHg 91%
    05:00 +22°C° 0 mm 1 m/s 731 mmHg 85%
    06:00 +23°C° 0 mm 1 m/s 732 mmHg 78%
    07:00 +25°C° 0 mm 1 m/s 732 mmHg 72%
    08:00 +26°C° 0 mm 2 m/s 732 mmHg 64%
    09:00 +28°C° 0 mm 2 m/s 732 mmHg 57%
    10:00 +29°C° 0 mm 2 m/s 732 mmHg 49%
    11:00 +30°C° 0 mm 3 m/s 732 mmHg 47%
    12:00 +30°C° 0 mm 3 m/s 732 mmHg 45%
    13:00 +32°C° 0 mm 4 m/s 732 mmHg 43%
    14:00 +32°C° 0 mm 4 m/s 732 mmHg 44%
    15:00 +30°C° 0 mm 4 m/s 732 mmHg 46%
    16:00 +30°C° 0 mm 4 m/s 732 mmHg 48%
    17:00 +28°C° 0 mm 4 m/s 732 mmHg 56%
    18:00 +26°C° 0 mm 3 m/s 732 mmHg 64%
    19:00 +24°C° 0 mm 2 m/s 732 mmHg 72%
    20:00 +23°C° 0 mm 2 m/s 732 mmHg 74%
    21:00 +22°C° 0 mm 1 m/s 733 mmHg 76%
    22:00 +21°C° 0 mm 1 m/s 733 mmHg 79%
    23:00 +21°C° 0 mm 1 m/s 733 mmHg 78%

    19 Juillet, Jeudi

    Heure Température Précipitation Vent Pression Humidité
    00:00 +21°C° 0 mm 1 m/s 733 mmHg 77%
    01:00 +21°C° 0 mm 1 m/s 732 mmHg 77%
    02:00 +20°C° 0 mm 1 m/s 732 mmHg 76%
    03:00 +20°C° 0 mm 1 m/s 732 mmHg 75%
    04:00 +20°C° 0 mm 1 m/s 732 mmHg 74%
    05:00 +22°C° 0 mm 1 m/s 732 mmHg 69%
    06:00 +24°C° 0 mm 1 m/s 732 mmHg 63%
    07:00 +26°C° 0 mm 1 m/s 732 mmHg 57%
    08:00 +27°C° 0 mm 1 m/s 732 mmHg 52%
    09:00 +28°C° 0 mm 2 m/s 732 mmHg 47%
    10:00 +30°C° 0 mm 3 m/s 732 mmHg 42%
    11:00 +30°C° 0 mm 3 m/s 732 mmHg 41%
    12:00 +32°C° 0 mm 4 m/s 732 mmHg 40%
    13:00 +32°C° 0 mm 5 m/s 732 mmHg 39%
    14:00 +32°C° 0 mm 5 m/s 732 mmHg 42%
    15:00 +30°C° 0 mm 5 m/s 732 mmHg 44%
    16:00 +30°C° 0 mm 5 m/s 732 mmHg 46%
    17:00 +28°C° 0 mm 4 m/s 732 mmHg 54%
    18:00 +26°C° 0 mm 2 m/s 732 mmHg 62%
    19:00 +24°C° 0 mm 1 m/s 732 mmHg 70%
    20:00 +23°C° 0 mm 1 m/s 733 mmHg 73%
    21:00 +23°C° 0 mm 1 m/s 733 mmHg 75%
    22:00 +22°C° 0 mm 1 m/s 733 mmHg 78%
    23:00 +21°C° 0 mm 1 m/s 733 mmHg 78%

    20 Juillet, Vendredi

    Heure Température Précipitation Vent Pression Humidité
    00:00 +21°C° 0 mm 1 m/s 733 mmHg 77%
    01:00 +21°C° 0 mm 1 m/s 733 mmHg 77%
    02:00 +20°C° 0 mm 1 m/s 733 mmHg 77%
    03:00 +20°C° 0 mm 1 m/s 733 mmHg 77%
    04:00 +20°C° 0 mm 1 m/s 733 mmHg 77%
    05:00 +22°C° 0 mm 1 m/s 733 mmHg 71%
    06:00 +24°C° 0 mm 1 m/s 733 mmHg 66%
    07:00 +25°C° 0 mm 1 m/s 733 mmHg 60%
    08:00 +27°C° 0 mm 1 m/s 733 mmHg 55%
    09:00 +29°C° 0 mm 1 m/s 733 mmHg 49%
    10:00 +30°C° 0 mm 1 m/s 734 mmHg 43%
    11:00 +31°C° 0 mm 2 m/s 733 mmHg 41%
    12:00 +33°C° 0 mm 3 m/s 733 mmHg 40%
    13:00 +33°C° 0 mm 3 m/s 733 mmHg 38%
    14:00 +33°C° 0 mm 3 m/s 733 mmHg 39%
    15:00 +33°C° 0 mm 3 m/s 733 mmHg 41%
    16:00 +31°C° 0 mm 3 m/s 733 mmHg 42%
    17:00 +29°C° 0 mm 3 m/s 733 mmHg 49%
    18:00 +27°C° 0 mm 2 m/s 733 mmHg 56%
    19:00 +25°C° 0 mm 1 m/s 733 mmHg 64%
    20:00 +24°C° 0 mm 1 m/s 733 mmHg 65%
    21:00 +23°C° 0 mm 1 m/s 733 mmHg 67%
    22:00 +22°C° 0 mm 1 m/s 734 mmHg 69%
    23:00 +22°C° 0 mm 1 m/s 734 mmHg 69%

    21 Juillet, Samedi

    Heure Température Précipitation Vent Pression Humidité
    00:00 +22°C° 0 mm 1 m/s 733 mmHg 69%
    01:00 +21°C° 0 mm 1 m/s 733 mmHg 69%
    02:00 +21°C° 0 mm 1 m/s 733 mmHg 67%
    03:00 +21°C° 0 mm 1 m/s 733 mmHg 65%
    04:00 +21°C° 0 mm 1 m/s 733 mmHg 63%
    05:00 +23°C° 0 mm 1 m/s 733 mmHg 58%
    06:00 +25°C° 0 mm 1 m/s 733 mmHg 52%
    07:00 +27°C° 0 mm 1 m/s 733 mmHg 47%
    08:00 +29°C° 0 mm 2 m/s 733 mmHg 42%
    09:00 +31°C° 0 mm 2 m/s 733 mmHg 37%
    10:00 +34°C° 0 mm 2 m/s 733 mmHg 32%
    11:00 +35°C° 0 mm 3 m/s 732 mmHg 31%
    12:00 +36°C° 0 mm 4 m/s 732 mmHg 31%
    13:00 +36°C° 0 mm 5 m/s 732 mmHg 30%
    14:00 +36°C° 0 mm 5 m/s 731 mmHg 32%
    15:00 +35°C° 0 mm 5 m/s 731 mmHg 33%
    16:00 +35°C° 0 mm 6 m/s 730 mmHg 35%
    17:00 +32°C° 0 mm 5 m/s 730 mmHg 41%
    18:00 +29°C° 0 mm 4 m/s 730 mmHg 47%
    19:00 +26°C° 0 mm 3 m/s 729 mmHg 53%
    20:00 +25°C° 0 mm 3 m/s 729 mmHg 56%
    21:00 +23°C° 0 mm 4 m/s 729 mmHg 59%
    22:00 +22°C° 0 mm 4 m/s 729 mmHg 61%
    23:00 +22°C° 0,6 mm 3 m/s 729 mmHg 68%
    Voir plus